01:02
Airports
History
Links
Donate
Help keep this website running!
PayPal
Bitcoin
Information on this page is community maintained and may be outdated or inaccurate and is intended for reference only or PC simulator navigating.
Always use approved charts for navigating.
CYRJ
ROBERVAL
ROBERVAL (CYRJ)
Roberval, Québec, Canada
(U)
Lat/Lng:48° 31' 12.01" N / 72° 15' 56" W
48.520002 / -72.265556
Elevation:586'ft 179mMSL
ID / ICAO:CYRJ
Runways:1
Longest:(16-34) 1,545.0m 5,069ft Asphalt
Distance To
Airport ID:
Airport Radio Frequencies
Tower: 122.2
Nearby VORs <50NM
Nearby NDBs
METARUpdated 05-23-17 00:00 GMT
Altimeter: 29.84
Visibility: 12.0 statute miles
Wind: 6 knots (150°)
Temp: 11°c 52°f
Humidity: 87.5%

METAR: CYRJ 230000Z 15006KT 12SM -RA OVC031 11/09 A2984 RMK SC8 SLP110

(Powered by phpweather)
Runway 16 / 34
Dimensions:1545 x 45.7m 5069' x 150'ft
Surface:Asphalt
Edge Lights:Medium intensity
Runway 16 [A]Runway 34 [B]
Heading:142°TH 322°TH
Lat:
Lng:
48° 31' 32"N
72° 16' 19"W
48° 30' 52.01"N
72° 15' 33"W
ALS:MALSMALS
TDZ:Yes, lighted
User Notes and Comments
Google Map
Nearby Airports
(U) DOLBEAU ST FELICIEN 18.5 NM
CYDO NNW 344°
(U) ALMA 28.6 NM
CYTF E 91°
(C) ST HONORE 55.6 NM
CYRC E 89°
(C) BAGOTVILLE 59.7 NM
CYBG (WX) ESE 102°
(U) LA TUQUE 80.4 NM
CYLQ SSW 197°
(U) CHARLEVOIX 113.8 NM
CYML SE 124°
(C) Quebec/jean Lesage Intl 126.2 NM
CYQB (WX) SSE 161°
VFR Chart
Flight Planning at SkyVector.com